• In Deutschland
  • Länderverzeichnis
  • Für 7 Tage
  • Wassertemperatur
  • Satellitenkarten
  • Wetterkarte
  • Widgets
  • user-avatar
    Anmelden

    Stündliche Wetter Samos

    Heute, 25 September, Dienstag

    Zeit Temperatur Niederschläge Wind Luftdruck Luftfeuchtigkeit
    00:00 +19°C° 0 mm 1 m/S 720 mmHg 78%
    01:00 +19°C° 0 mm 1 m/S 720 mmHg 79%
    02:00 +19°C° 0 mm 1 m/S 720 mmHg 79%
    03:00 +19°C° 0 mm 1 m/S 720 mmHg 77%
    04:00 +17°C° 0 mm 2 m/S 720 mmHg 75%
    05:00 +17°C° 0 mm 2 m/S 720 mmHg 74%
    06:00 +19°C° 0 mm 3 m/S 720 mmHg 67%
    07:00 +20°C° 0 mm 4 m/S 721 mmHg 60%
    08:00 +21°C° 0 mm 5 m/S 721 mmHg 52%
    09:00 +23°C° 0 mm 5 m/S 721 mmHg 46%
    10:00 +26°C° 0 mm 6 m/S 721 mmHg 39%
    11:00 +29°C° 0 mm 6 m/S 722 mmHg 33%
    12:00 +29°C° 0 mm 7 m/S 722 mmHg 32%
    13:00 +30°C° 0 mm 7 m/S 722 mmHg 31%
    14:00 +32°C° 0 mm 8 m/S 722 mmHg 30%
    15:00 +29°C° 0 mm 9 m/S 721 mmHg 34%
    16:00 +28°C° 0 mm 10 m/S 721 mmHg 38%
    17:00 +26°C° 0 mm 11 m/S 721 mmHg 43%
    18:00 +23°C° 0 mm 11 m/S 721 mmHg 50%
    19:00 +19°C° 0 mm 11 m/S 722 mmHg 57%
    20:00 +17°C° 0 mm 11 m/S 722 mmHg 64%
    21:00 +16°C° 0 mm 11 m/S 722 mmHg 67%
    22:00 +14°C° 0 mm 11 m/S 722 mmHg 69%
    23:00 +14°C° 0 mm 11 m/S 722 mmHg 71%

    Morgen, 26 September, Mittwoch

    Zeit Temperatur Niederschläge Wind Luftdruck Luftfeuchtigkeit
    00:00 +13°C° 0 mm 11 m/S 722 mmHg 71%
    01:00 +13°C° 0 mm 12 m/S 722 mmHg 72%
    02:00 +12°C° 0 mm 12 m/S 722 mmHg 72%
    03:00 +12°C° 0 mm 12 m/S 722 mmHg 72%
    04:00 +12°C° 0 mm 12 m/S 722 mmHg 73%
    05:00 +10°C° 0 mm 12 m/S 722 mmHg 73%
    06:00 +12°C° 0 mm 12 m/S 722 mmHg 68%
    07:00 +13°C° 0 mm 12 m/S 722 mmHg 63%
    08:00 +14°C° 0 mm 12 m/S 723 mmHg 57%
    09:00 +17°C° 0 mm 12 m/S 723 mmHg 50%
    10:00 +19°C° 0 mm 13 m/S 723 mmHg 43%
    11:00 +20°C° 0 mm 13 m/S 723 mmHg 36%
    12:00 +22°C° 0 mm 13 m/S 723 mmHg 34%
    13:00 +23°C° 0 mm 13 m/S 722 mmHg 31%
    14:00 +23°C° 0 mm 13 m/S 722 mmHg 29%
    15:00 +23°C° 0 mm 14 m/S 722 mmHg 31%
    16:00 +22°C° 0 mm 14 m/S 721 mmHg 33%
    17:00 +20°C° 0 mm 14 m/S 721 mmHg 35%
    18:00 +18°C° 0 mm 14 m/S 721 mmHg 39%
    19:00 +15°C° 0 mm 14 m/S 721 mmHg 44%
    20:00 +13°C° 0 mm 14 m/S 721 mmHg 48%
    21:00 +13°C° 0 mm 14 m/S 721 mmHg 51%
    22:00 +12°C° 0 mm 14 m/S 721 mmHg 53%
    23:00 +10°C° 0 mm 13 m/S 721 mmHg 56%

    übermorgen, 27 September, Donnerstag

    Zeit Temperatur Niederschläge Wind Luftdruck Luftfeuchtigkeit
    00:00 +10°C° 0 mm 13 m/S 720 mmHg 56%
    01:00 +12°C° 0 mm 14 m/S 720 mmHg 55%
    02:00 +12°C° 0 mm 14 m/S 719 mmHg 55%
    03:00 +10°C° 0.1 mm 14 m/S 719 mmHg 61%
    04:00 +10°C° 0.1 mm 14 m/S 718 mmHg 66%
    05:00 +10°C° 0.1 mm 13 m/S 717 mmHg 71%
    06:00 +10°C° 0.7 mm 13 m/S 717 mmHg 73%
    07:00 +9°C° 0.7 mm 13 m/S 717 mmHg 75%
    08:00 +9°C° 0.7 mm 13 m/S 717 mmHg 77%
    09:00 +12°C° 0.5 mm 12 m/S 717 mmHg 71%
    10:00 +14°C° 0.5 mm 11 m/S 717 mmHg 65%
    11:00 +17°C° 0.5 mm 10 m/S 717 mmHg 58%
    12:00 +18°C° 0.3 mm 9 m/S 717 mmHg 53%
    13:00 +21°C° 0.3 mm 8 m/S 716 mmHg 47%
    14:00 +22°C° 0.3 mm 8 m/S 716 mmHg 41%
    15:00 +22°C° 0.3 mm 8 m/S 716 mmHg 43%
    16:00 +21°C° 0.3 mm 7 m/S 716 mmHg 45%
    17:00 +21°C° 0.3 mm 7 m/S 716 mmHg 47%
    18:00 +18°C° 0.6 mm 7 m/S 716 mmHg 55%
    19:00 +16°C° 0.6 mm 8 m/S 717 mmHg 63%
    20:00 +15°C° 0.6 mm 8 m/S 717 mmHg 71%
    21:00 +13°C° 1.1 mm 8 m/S 717 mmHg 73%
    22:00 +14°C° 1.1 mm 7 m/S 717 mmHg 74%
    23:00 +14°C° 1.1 mm 7 m/S 717 mmHg 76%

    28 September, Freitag

    Zeit Temperatur Niederschläge Wind Luftdruck Luftfeuchtigkeit
    00:00 +14°C° 0.5 mm 7 m/S 717 mmHg 77%
    01:00 +12°C° 0.5 mm 7 m/S 717 mmHg 77%
    02:00 +12°C° 0.5 mm 7 m/S 717 mmHg 78%
    03:00 +12°C° 0.3 mm 7 m/S 717 mmHg 79%
    04:00 +13°C° 0.3 mm 6 m/S 717 mmHg 79%
    05:00 +13°C° 0.3 mm 6 m/S 717 mmHg 79%
    06:00 +14°C° 0.2 mm 6 m/S 717 mmHg 75%
    07:00 +15°C° 0.2 mm 6 m/S 718 mmHg 70%
    08:00 +16°C° 0.2 mm 6 m/S 718 mmHg 66%
    09:00 +18°C° 0.5 mm 7 m/S 718 mmHg 58%
    10:00 +21°C° 0.5 mm 7 m/S 719 mmHg 51%
    11:00 +22°C° 0.5 mm 8 m/S 719 mmHg 43%
    12:00 +22°C° 1 mm 8 m/S 719 mmHg 46%
    13:00 +22°C° 1 mm 8 m/S 719 mmHg 50%
    14:00 +21°C° 1 mm 8 m/S 718 mmHg 53%
    15:00 +21°C° 0.8 mm 8 m/S 719 mmHg 56%
    16:00 +20°C° 0.8 mm 8 m/S 719 mmHg 59%
    17:00 +20°C° 0.8 mm 8 m/S 719 mmHg 62%
    18:00 +18°C° 0.5 mm 8 m/S 719 mmHg 66%
    19:00 +17°C° 0.5 mm 7 m/S 719 mmHg 70%
    20:00 +16°C° 0.5 mm 7 m/S 719 mmHg 74%
    21:00 +15°C° 0.8 mm 7 m/S 719 mmHg 75%
    22:00 +15°C° 0.8 mm 7 m/S 719 mmHg 76%
    23:00 +15°C° 0.8 mm 7 m/S 719 mmHg 77%

    29 September, Samstag

    Zeit Temperatur Niederschläge Wind Luftdruck Luftfeuchtigkeit
    00:00 +14°C° 1.2 mm 6 m/S 719 mmHg 78%
    01:00 +14°C° 1.2 mm 6 m/S 719 mmHg 79%
    02:00 +14°C° 1.2 mm 6 m/S 719 mmHg 80%
    03:00 +14°C° 0.8 mm 6 m/S 719 mmHg 80%
    04:00 +14°C° 0.8 mm 5 m/S 719 mmHg 80%
    05:00 +14°C° 0.8 mm 5 m/S 719 mmHg 80%
    06:00 +15°C° 0.8 mm 5 m/S 719 mmHg 76%
    07:00 +16°C° 0.8 mm 5 m/S 719 mmHg 72%
    08:00 +16°C° 0.8 mm 5 m/S 719 mmHg 68%
    09:00 +19°C° 1.1 mm 5 m/S 719 mmHg 64%
    10:00 +20°C° 1.1 mm 5 m/S 719 mmHg 59%
    11:00 +21°C° 1.1 mm 5 m/S 719 mmHg 55%
    12:00 +21°C° 1.1 mm 4 m/S 719 mmHg 55%
    13:00 +21°C° 1.1 mm 4 m/S 719 mmHg 56%
    14:00 +21°C° 1.1 mm 4 m/S 719 mmHg 56%
    15:00 +21°C° 0.9 mm 4 m/S 719 mmHg 59%
    16:00 +20°C° 0.9 mm 3 m/S 719 mmHg 62%
    17:00 +20°C° 0.9 mm 3 m/S 719 mmHg 65%
    18:00 +19°C° 0.4 mm 3 m/S 720 mmHg 70%
    19:00 +18°C° 0.4 mm 3 m/S 720 mmHg 75%
    20:00 +17°C° 0.4 mm 3 m/S 720 mmHg 80%
    21:00 +16°C° 0.1 mm 3 m/S 721 mmHg 81%
    22:00 +16°C° 0.1 mm 2 m/S 721 mmHg 82%
    23:00 +16°C° 0.1 mm 2 m/S 721 mmHg 83%

    30 September, Sonntag

    Zeit Temperatur Niederschläge Wind Luftdruck Luftfeuchtigkeit
    00:00 +16°C° 0.1 mm 2 m/S 721 mmHg 83%
    01:00 +15°C° 0.1 mm 2 m/S 721 mmHg 84%
    02:00 +14°C° 0.1 mm 3 m/S 721 mmHg 85%
    03:00 +14°C° 0 mm 3 m/S 721 mmHg 85%
    04:00 +14°C° 0 mm 3 m/S 721 mmHg 86%
    05:00 +13°C° 0 mm 3 m/S 721 mmHg 86%
    06:00 +14°C° 0 mm 3 m/S 722 mmHg 81%
    07:00 +16°C° 0 mm 3 m/S 722 mmHg 76%
    08:00 +17°C° 0 mm 3 m/S 722 mmHg 71%
    09:00 +19°C° 0 mm 3 m/S 722 mmHg 64%
    10:00 +21°C° 0 mm 3 m/S 722 mmHg 56%
    11:00 +24°C° 0 mm 3 m/S 722 mmHg 48%
    12:00 +24°C° 0 mm 3 m/S 722 mmHg 45%
    13:00 +25°C° 0 mm 4 m/S 722 mmHg 43%
    14:00 +25°C° 0 mm 4 m/S 722 mmHg 40%
    15:00 +25°C° 0 mm 5 m/S 722 mmHg 42%
    16:00 +23°C° 0 mm 5 m/S 722 mmHg 44%
    17:00 +23°C° 0 mm 5 m/S 721 mmHg 45%
    18:00 +21°C° 0 mm 5 m/S 722 mmHg 51%
    19:00 +20°C° 0 mm 5 m/S 722 mmHg 56%
    20:00 +17°C° 0 mm 5 m/S 722 mmHg 61%
    21:00 +17°C° 0 mm 5 m/S 722 mmHg 63%
    22:00 +16°C° 0 mm 5 m/S 722 mmHg 64%
    23:00 +17°C° 0 mm 4 m/S 721 mmHg 66%
    Mehr zeigen